Location: Cirali
(36.6439°N, 30.2808°E)
Time: 17:00:05
(UTC+00:00)

Daily predictions for brighter satellites

Satellite Brightness Start Highest point End
(mag) Time Altitude Azimuth Time Altitude Azimuth Time Altitude Azimuth
CZ-2C R/B 3.3 15:34:30 10° NNE 15:39:41 37° E 15:44:45 10° SSE
Cosmos 1908 3.8 15:36:22 10° SSE 15:39:54 35° E 15:43:27 10° NNE
X-37B 2.1 15:37:34 10° W 15:40:24 29° NNW 15:43:13 10° NE
Cosmos 2278 4.1 15:35:15 10° S 15:40:32 43° ESE 15:45:53 10° NE
H-2A R/B 3.9 15:39:49 10° E 15:40:43 11° E 15:41:37 10° ESE
Cosmos 2227 Rocket 2.2 15:35:10 10° NNW 15:40:52 86° ENE 15:46:31 10° SSE
H-2A R/B 2.3 15:40:55 10° SSE 15:46:01 50° ENE 15:51:14 10° N
Cosmos 1727 Rocket 4.0 15:39:55 10° N 15:46:03 60° E 15:52:07 10° SSE
MOS 1-B 4.3 15:41:37 10° SSE 15:47:22 71° ENE 15:53:08 10° N
Radarsat Rocket 4.4 15:46:33 10° S 15:52:36 77° WSW 15:59:24 10° NNW
Meteor 1-16 Rocket 4.4 15:49:23 10° S 15:55:07 55° E 16:00:49 10° NNE
SL-16 R/B 3.4 15:53:03 10° SE 15:56:59 19° E 16:00:54 10° NE
Okean 1 Rocket 3.7 15:52:51 10° SSW 15:57:07 61° W 16:01:26 10° N
H-2A R/B 3.6 15:54:57 10° SE 15:58:31 25° ENE 16:02:01 10° NNE
SMAP 4.4 15:56:23 10° S 16:00:48 44° W 16:05:16 10° NNW
MOS 1-B Rocket 4.1 15:54:53 10° NNE 16:01:26 58° E 16:07:09 10° S
Cosmos 2082 3.6 16:01:50 10° NNW 16:07:27 69° ENE 16:13:02 10° SSE
CZ-4C R/B 2.8 16:04:54 10° NNE 16:08:16 63° E 16:11:31 10° S
Cosmos 1048 Rocket 4.2 16:03:50 10° NNW 16:09:11 80° WSW 16:14:27 10° SSE
BREEZE-M DEB (TANK) 4.3 16:07:41 10° W 16:09:20 22° SW 16:11:52 10° SSE
COSMO-SKYMED 1 2.6 16:05:25 10° NNE 16:09:46 87° WNW 16:14:06 10° SSW
Cosmos 2322 Rocket 3.4 16:09:41 10° SE 16:13:36 20° E 16:16:09 15° ENE
Cosmos 1703 3.4 16:10:53 10° N 16:14:40 47° E 16:18:26 10° SSE
Cosmos 389 Rocket 3.7 16:11:43 10° SSW 16:14:57 42° WNW 16:18:12 10° N
CZ-4 R/B 4.4 16:11:12 10° SSE 16:15:17 59° ENE 16:19:21 10° N
IRIS 3.4 16:18:17 10° WNW 16:20:36 81° NNE 16:21:32 33° ESE
Cosmos 1892 Rocket 3.5 16:17:11 10° N 16:21:36 63° E 16:25:58 10° SSE
ATLAS 5 CENTAUR R/B 1.8 16:18:35 10° SW 16:22:20 58° NW 16:26:27 10° NNE
deb Chang Zheng 4 4.3 16:18:21 10° S 16:22:26 53° W 16:26:34 10° NNW
Tiangong 1.0 16:19:59 10° WSW 16:23:09 73° SSE 16:24:34 29° ENE
Cosmos 1000 Rocket 4.4 16:17:10 10° N 16:23:19 71° E 16:29:30 10° SSE
Cosmos 1300 3.1 16:21:11 10° SSE 16:24:41 37° E 16:28:13 10° NNE
NOSS 2-3 (E) 4.2 16:22:44 10° S 16:26:11 30° ESE 16:27:23 25° E
Cosmos 2360 Rocket 4.2 16:24:43 10° SE 16:24:49 10° SE 16:24:49 10° SE
Iridium 4 Rocket 3.4 16:23:46 10° NNE 16:28:10 48° E 16:32:55 10° SSE
CZ-4B R/B 3.7 16:23:23 10° S 16:28:57 68° WSW 16:34:37 10° NNW
Cosmos 1953 3.0 16:25:14 10° SSW 16:29:12 58° W 16:33:12 10° N
CZ-4 R/B 1.7 16:25:39 10° SE 16:29:19 40° ENE 16:33:06 10° N
USA 229 DEB 4.5 16:24:52 10° SSE 16:29:42 24° ESE 16:31:08 22° E
Meteor 1-21 Rocket 4.3 16:25:54 10° N 16:31:48 89° E 16:37:43 10° S
SL-8 R/B 4.1 16:29:05 10° WSW 16:33:48 58° NNW 16:37:13 18° NE
Cosmos 1328 4.1 16:31:23 10° N 16:35:16 45° E 16:39:07 10° SSE
Meteor 2-10 Rocket 4.3 16:30:48 10° SSE 16:35:46 32° E 16:40:36 10° NNE
Cosmos 405 Rocket 2.6 16:34:10 10° N 16:38:07 74° E 16:42:07 10° SSE
Cosmos 1607 3.9 16:35:44 10° NNW 16:42:01 89° ENE 16:48:09 10° SSE
CZ-3 Stage 3 3.9 16:17:06 10° W 16:42:03 58° SSW 16:45:12 25° ESE
Delta 2 Rocket 3.9 16:41:14 10° SW 16:44:11 29° SSE 16:44:11 29° SSE
SL-08 RB Rocket 3.5 16:40:19 10° SSE 16:44:49 77° ENE 16:49:22 10° N
Centaur AC-112 4.4 16:30:49 10° WSW 16:44:54 36° SSW 16:47:41 20° SE
CZ-2C R/B 0.8 16:43:27 10° WSW 16:46:50 61° S 16:47:10 57° SE
Cosmos 1626 Rocket 4.1 16:45:18 10° N 16:48:37 36° NE 16:48:37 36° NE
Cosmos 1980 Rocket 3.8 16:46:03 10° SW 16:51:08 34° WNW 16:56:19 10° N
NOSS 3-1 (A) 3.8 16:47:33 10° S 16:51:24 31° SE 16:51:24 31° SE
ARGOS 3.6 16:49:42 10° S 16:55:00 62° W 17:00:22 10° NNW
NOSS 8 (E) 4.5 16:51:29 10° SW 16:55:24 76° WNW 16:56:03 54° N
CSL-04 Debris 4.5 16:55:26 39° E 16:56:18 42° ENE 17:01:22 10° N
Cosmos 1934 Rocket 4.0 16:50:48 10° S 16:56:56 78° W 17:03:02 10° N
Cosmos 2263 Rocket 2.0 16:51:50 10° NNW 16:57:23 69° ENE 17:00:21 28° SE
Cosmos 304 Rocket 3.9 16:52:59 10° S 16:57:16 46° ESE 16:57:16 46° ESE
DMSP B5D1-3 4.5 16:54:57 10° NNE 17:00:06 85° WNW 17:05:15 10° SSW
Cosmos 332 Rocket 3.9 16:56:21 10° S 17:01:05 52° ESE 17:01:14 52° E
Feng Yun 1-1 Rocket 4.5 16:55:48 10° S 17:01:14 70° WSW 17:06:51 10° NNW
YAOGAN 1 2.6 16:59:01 10° S 17:03:19 76° WSW 17:07:39 10° NNW
Okean O Rocket 3.6 17:01:14 10° SSW 17:04:57 28° W 17:08:43 10° NW
MetOp-A 4.1 17:08:06 49° ESE 17:09:12 60° ENE 17:14:29 10° N
NOSS 2-3 (D) 3.3 17:09:15 10° SSW 17:13:05 82° SW 17:13:05 82° SW
CSL-04 Rocket 3.7 17:14:34 58° E 17:14:43 58° ENE 17:20:09 10° N
DMSP B5D2-2 4.4 17:11:10 10° N 17:16:21 64° WNW 17:21:30 10° SSW
Cosmos 2123 Rocket 4.2 17:10:10 10° NNW 17:16:28 70° W 17:22:42 10° S
H-2A R/B 2.7 17:12:56 10° N 17:16:55 51° WNW 17:20:57 10° SSW
Okean-O 2.7 17:17:42 64° N 17:17:42 64° N 17:21:30 10° N
X-37B 3.3 17:15:27 10° NW 17:16:36 15° NNW 17:16:36 15° NNW
NOSS 3-1 (C) 3.2 17:14:41 10° SW 17:19:44 73° WNW 17:22:30 31° NNE
NOSS 2-3 (C) 3.9 17:22:07 10° SW 17:25:44 57° WNW 17:25:44 57° WNW
Cosmos 371 Rocket 4.4 17:25:27 10° SW 17:30:02 42° WNW 17:34:40 10° N
SL-16 R/B 2.9 17:35:07 10° SW 17:40:36 50° WNW 17:45:01 16° N
Cosmos 2344 4.5 17:35:11 10° NNW 17:44:36 56° NE 17:46:45 51° E
Gbstr 26 Del rocket 4.3 17:44:16 10° NW 17:51:57 87° NE 17:52:27 80° ESE
Cosmos 2322 Rocket 3.0 17:51:48 10° SW 17:57:12 48° WNW 17:58:06 44° NW
CZ-4 R/B 4.5 18:02:49 10° WSW 18:04:30 12° W 18:06:11 10° WNW
Cosmos 2360 Rocket 4.3 18:05:30 10° SSW 18:06:43 17° SW 18:06:43 17° SW
USA 229 DEB 4.3 18:13:55 10° SW 18:18:41 46° W 18:18:41 46° W
USA 229 4.4 18:14:00 10° SW 18:18:42 45° W 18:18:42 45° W
Milstar 3 Cent rocket 4.3 18:23:14 10° SW 18:29:20 44° S 18:29:20 44° S
